STARLINK-2593, 48404

Orbit data source: Space-Track

STARLINK-2593, 48404 is a payload satellite owned by SpaceX/Seattle (US) in LEO that was launched on Tue, 04 May 2021 UTC via an FALCON 9 launch vehicle from the Air Force Eastern Test Range (AFETR). Payload-class satellites include a variety of spacecraft equipped with specific instruments for various scientific and technological missions. These include communications satellites like Starlink; space stations such as the ISS; scientific satellites like the Hubble; Earth observation satellites from companies like Planet Labs, Umbra, and HawkEye 360; GPS; miniature CubeSats for education and research; and military/defense satellites.

Loading next visibility...
Identifier
48404, 2021-038BD
Orbit
LEO
Country
Flag of USUS
Related business
Manufacturer
SpaceX/Seattle
Mission
Operational Commercial Communications
Bus & Motor
STARLINK, Unknown motor
Mass
260 kg wet, ~248 kg dry
Launch date (UTC)
2021-05-04 (5 years ago)
Launch vehicle
FALCON 9
Launch site
Air Force Eastern Test Range (AFETR)
Object type
Payload
Rocket body
Debris
Shape & HBR
Box + 1 Pan, 10.1 m
Radar Cross Section
13.562 m², Large (>1 m²)

Expand to show TLE details & history
Last TLE update: 2 days ago

TLE from 2 days ago
0 STARLINK-2593
1 48404U 21038BD  26171.42374902  .00000104  00000-0  15100-4 0  9998
2 48404  53.1589 214.7326 0001163  90.5121 269.6013 15.31701503283182
Epoch: 2026-06-20T10:10Z
TLE epoch observation values (Epoch: 2026-06-20T10:10:11.915Z)
Latitude
-0.00007°
Longitude
153.54433°
Altitude
471.641 km
Speed
7.631 km/s
True Right ascension
14h 18m 55s
True Declination
0° 00' 00"
Sunlit
Object was in full shadow at epoch
Visualization orbit readout
Latitude
Unknown
Longitude
Unknown
Altitude
Unknown
Speed
Unknown
Apparent Right ascension
Unknown
Apparent Declination
Unknown
Sunlit
N/A
Visualization observer readout
Local Sidereal Time
21:25:55
Azimuth
Unknown
Elevation
Unknown
Doppler factor
Unknown
Orbital elements
Apogee altitude
471.789 km
Perigee altitude
470.196 km
Semi-major axis
6,849.129 km
Eccentricity
0.00012
Inclination
53.1589°
RAAN
214.7326°
Arg. of periapsis
90.5121°
True anomaly
269.58797°
Mean anomaly
269.6013°
Eccentric anomaly
269.59464°
Mean motion
3.82904 °/min
Orbital period
94.02 mins
BSTAR
0.0000151
Loading maneuver chart data...
Computing Atmospheric mass density...

Documentation

Showing up to 5 results
|